Location: Clarion
(42.7316°N, 93.7330°W)
Time: 08:49:42
(UTC+00:00)

Aureole 1 Rocket - Pass Details

Date: 22 April 2026
Orbit: 373 x 1150 km, 73.9° (Epoch: 17 May)

Event Time Altitude Azimuth Distance (km) Brightness Sun altitude
Rises 10:18:22 0° 325° (NW) 2,805 6.4 -11.6°
Reaches altitude 10° 10:20:39 10° 313° (NW) 2,020 5.5 -11.2°
Maximum altitude 10:24:27 26° 256° (WSW) 1,391 4.3 -10.6°
Drops below altitude 10° 10:28:57 10° 201° (SSW) 2,434 5.7 -9.9°
Sets 10:32:00 0° 190° (S) 3,511 6.6 -9.4°
